Location: Liberec
(50.7830°N, 15.0500°E)
Time: 05:43:50
(UTC+02:00)

ISS - Pass Details

Date: 23 May 2021
Orbit: 417 x 422 km, 51.6° (Epoch: 13 June)

Event Time Altitude Azimuth Distance (km) Brightness Sun altitude
Rises 22:09:57 0° 277° (W) 2,365 0.8 -9.6°
Reaches altitude 10° 22:12:03 10° 279° (W) 1,502 -0.2 -9.8°
Maximum altitude 22:15:26 78° 6° (N) 434 -3.6 -10.2°
Drops below altitude 10° 22:18:48 10° 93° (E) 1,503 -1.3 -10.5°
Enters shadow 22:19:24 - 94° (E) 1,743 -1.0 -10.5°
